Location: Unspecified
(0.0000°N, 0.0000°E)
Time: 14:52:43
(UTC+00:00)

STARLINK-35808 - Pass Details

Date: 04 March 2026
Orbit: 268 x 269 km, 53.2° (Epoch: 6 March)

Event Time Altitude Azimuth Distance (km) Brightness Sun altitude
Rises 19:02:06 0° 219° (SW) 1,839 6.0 -12.5°
Reaches altitude 10° 19:03:59 10° 223° (SW) 1,039 4.8 -13.0°
Maximum altitude 19:06:14 59° 304° (WNW) 303 1.5 -13.6°
Enters shadow 19:07:34 21° 19° (NNE) 657 2.8 -13.9°
